CAPE
0 453 1124 1169 974 1043 1214 1262 879 1024 1067 730 590 414 352 370 422 259 244 241 322 373 159 116 237 101 72 60 50 45 46 38 41 53 76 74 69 46 49 56 59 38 54
76 219 1252 1419 1231 1254 1104 1164 996 1116 1074 997 735 477 352 356 290 201 332 275 259 245 161 124 86 40 37 28 32 35 28 35 59 61 54 59 69 57 46 45 68 31 48
205 275 629 1448 1385 1267 1159 1024 1060 1308 926 741 891 703 537 525 387 332 288 242 306 150 120 61 49 40 34 33 34 49 28 35 64 65 48 39 47 64 57 50 58 45 37
300 422 159 1270 1384 1149 1032 849 943 1115 942 822 769 697 706 535 393 292 282 188 140 103 52 46 48 34 31 28 21 18 21 32 42 58 20 22 28 47 51 44 40 40 44
275 231 421 1282 1324 1168 1081 1216 1361 1158 833 830 636 836 909 551 330 274 203 195 232 125 42 25 26 26 29 26 19 15 12 29 36 22 26 32 13 40 31 26 34 31 32
326 275 871 1198 1270 1031 1220 1215 1154 939 784 579 650 677 746 654 353 201 176 175 51 46 42 23 13 21 25 29 16 7 8 28 22 17 23 38 34 34 43 31 34 36 34
498 800 809 1263 1247 1147 1214 1112 910 980 712 736 648 748 496 424 200 88 177 117 47 54 33 21 19 21 10 18 6 0 1 15 9 12 4 24 38 34 37 27 31 26 23
600 1056 778 1068 1084 1116 1138 1022 910 935 806 640 709 661 576 294 162 131 188 165 68 37 31 26 24 23 7 0 0 0 0 9 6 6 16 22 41 16 16 24 24 21 24
817 855 838 853 732 895 847 803 851 716 467 488 647 549 347 287 250 157 242 186 100 40 32 27 28 25 10 0 0 0 0 11 1 6 4 15 40 18 21 11 14 12 11
691 752 701 755 608 291 660 528 485 291 221 302 250 174 118 121 198 262 172 143 160 89 60 45 23 25 13 0 0 0 0 0 2 1 6 21 13 15 11 7 16 12 8
696 611 867 799 500 442 338 359 170 143 121 91 39 11 14 37 22 29 46 76 123 84 70 40 30 20 12 2 0 0 0 1 1 1 7 28 14 6 8 6 6 10 10
785 789 750 836 447 540 412 327 371 236 174 160 76 17 58 25 21 36 32 51 67 61 64 50 31 4 0 0 0 0 0 1 3 2 4 4 7 6 10 8 10 8 6
882 933 651 787 279 367 353 511 625 491 350 120 35 29 10 7 17 32 58 57 47 19 30 30 4 0 3 0 0 1 0 0 0 0 2 3 3 8 10 6 7 5 3
816 841 832 651 313 339 511 530 541 402 163 114 35 17 14 14 21 11 51 74 41 49 19 10 7 7 3 3 1 0 0 0 1 2 0 5 2 1 7 4 5 3 1
795 635 774 958 367 297 569 548 413 297 147 83 26 7 18 23 11 11 21 66 52 25 16 13 10 5 2 1 0 0 0 0 0 1 0 3 4 2 3 4 3 1 0
821 575 653 901 444 418 547 550 449 207 138 91 8 8 12 15 5 27 6 35 34 11 20 12 8 5 4 3 0 0 0 0 0 0 1 0 1 5 2 2 0 0 0
823 782 594 630 394 300 217 463 413 216 101 63 14 7 14 8 9 12 5 21 29 26 22 16 15 13 11 6 2 0 0 0 0 0 0 5 0 0 0 0 0 0 0
748 617 608 406 347 301 270 217 175 272 145 40 6 12 5 11 15 12 4 12 23 29 23 20 17 15 10 3 1 1 0 0 0 0 0 0 1 2 0 0 0 0 0
681 568 388 292 343 283 242 87 29 134 105 134 34 15 10 7 7 18 18 20 11 19 15 16 15 10 5 4 2 3 1 0 0 0 0 0 0 0 0 0 0 0 0
584 610 299 250 264 189 78 7 21 197 82 49 33 13 8 5 2 3 10 12 7 6 7 13 9 5 2 3 0 0 0 0 0 0 0 0 0 0 0 0 0 0 0
503 418 235 151 61 41 13 16 40 90 115 25 16 11 8 2 0 0 5 7 5 1 2 1 4 0 0 0 0 0 0 0 0 0 0 0 0 0 0 0 0 0 0
366 309 143 113 44 38 77 123 104 100 26 18 7 11 8 0 0 0 0 6 5 5 5 1 3 0 0 0 0 0 0 0 0 0 0 0 0 0 0 0 0 0 0
340 266 211 175 117 78 267 216 79 66 46 33 7 10 4 0 0 0 0 0 2 3 5 2 0 0 0 0 0 0 0 0 0 0 0 0 0 0 0 0 0 0 0
320 338 265 237 150 190 305 199 146 36 17 6 10 10 7 1 0 0 0 0 0 0 1 0 0 0 2 0 0 0 0 0 0 0 0 0 0 0 0 0 0 0 0
353 341 260 252 239 252 307 383 175 35 13 29 30 28 11 2 0 0 0 0 3 3 4 3 0 0 0 4 0 0 0 0 0 0 0 0 0 0 0 0 0 0 0
415 340 253 242 191 129 386 427 244 136 36 21 40 47 20 5 0 0 0 0 2 18 12 3 0 0 0 0 1 0 0 0 0 0 0 0 0 0 0 0 0 0 0
CIN
0 -92 -2 0 0 0 0 0 0 0 0 0 -1 -20 -27 -10 -3 0 0 0 -2 0 -1 -3 -1 -18 0 0 0 0 0 0 -4 -3 0 0 0 0 0 0 0 0 0
-129 -141 -6 0 0 0 0 0 0 0 0 0 0 -5 -28 -19 -31 0 -11 -9 0 0 -3 -6 -35 0 0 0 0 0 -1 -2 -3 -6 -7 -4 -1 0 0 -1 0 0 0
-109 -116 -51 0 0 0 0 -1 -1 0 0 0 0 0 -1 -1 -10 -10 -13 -53 -21 0 -1 0 0 0 0 0 0 0 -3 -5 -3 -3 -4 -1 0 0 0 0 0 0 0
-95 -72 -119 0 0 0 0 -2 -1 0 0 0 0 0 0 -1 -13 -28 -16 0 0 -1 0 0 0 -1 0 0 0 0 0 -2 -14 -22 -1 -2 -1 0 0 0 0 0 0
-62 -103 -49 0 0 0 0 0 0 0 0 0 -1 0 0 0 -14 -32 -28 -3 -2 -7 0 0 0 0 0 0 0 0 -3 -8 -17 -2 -2 -3 -2 0 0 0 0 0 0
-57 -65 -31 0 0 0 0 0 0 0 0 0 0 0 0 0 -6 0 0 0 -2 -1 0 0 0 -1 0 0 0 -4 -12 -17 -9 0 -5 -2 -4 0 0 0 0 0 0
-46 -20 -15 0 0 0 0 0 -1 0 0 0 0 0 -1 -1 0 -4 -2 -4 -3 -3 -2 0 0 -1 0 0 -4 -3 -26 -34 -2 0 -1 -6 -4 0 0 0 -1 0 -1
-40 -39 -17 -1 -1 0 0 0 -1 0 0 0 0 0 0 0 0 -1 -5 -2 -1 0 -1 0 0 0 0 0 0 0 -11 -54 -2 0 -1 -2 -2 -1 0 0 0 0 0
-37 -24 -14 0 -1 -1 -1 -2 -1 -3 -7 -6 -4 0 -2 0 0 -2 -1 0 -4 0 0 0 0 0 0 0 0 0 0 -81 0 0 0 -2 -2 -1 0 0 0 0 0
-46 -10 -6 -2 0 -33 -1 -10 -9 -17 -19 -7 -14 -15 -15 -8 -3 0 -2 -5 0 -12 0 0 0 0 0 0 0 0 0 0 0 0 -1 -3 -1 0 0 0 0 0 0
-18 -12 0 0 -1 -10 -26 -23 -42 -43 -26 -30 -54 -36 -20 -6 -1 -13 -28 -22 -2 -7 0 0 0 0 -7 -4 0 0 0 -1 -1 0 0 -2 0 0 0 0 0 0 0
-17 -4 -1 0 -5 -1 -17 -1 -1 -5 0 0 -7 -11 -2 -1 -4 0 -16 -14 -16 -2 -1 0 0 -9 -1 0 0 0 0 -1 0 0 0 -1 0 0 0 0 0 0 0
-42 -12 -7 -1 -20 -11 -1 -7 -1 0 -4 -3 -17 -13 -2 -19 -10 -3 -1 -1 0 -3 0 -1 -3 0 -1 0 0 -1 0 0 -1 0 -1 0 0 0 0 0 0 0 0
-32 -24 -7 -4 -12 -7 -3 -7 -5 0 -8 -3 -13 -22 0 -7 -4 -1 0 -2 0 0 -1 0 -1 -1 0 -1 -1 0 0 0 -1 -1 -6 -3 0 0 0 0 0 0 0
-41 -59 -18 -1 -15 -10 0 0 0 -1 -2 -11 -32 -14 0 -1 -11 -2 -9 -7 0 -13 -1 0 -1 -1 0 0 0 0 -1 0 0 -1 0 -11 -1 0 0 0 0 0 0
-47 -87 -38 0 -14 -14 0 0 0 -9 -2 -7 -10 0 -1 -1 -11 0 -14 0 -3 -18 -1 -1 -1 -1 -1 -1 0 0 0 0 0 0 -2 0 -4 -4 0 0 0 0 0
-90 -80 -56 -15 -43 -39 -33 0 -2 -7 -19 -19 -36 -1 0 -1 -10 -4 -5 -2 0 -3 0 -1 0 0 0 0 0 -1 0 0 0 0 0 -3 0 0 0 0 0 0 0
-75 -79 -47 -55 -65 -34 -27 -8 -16 -3 -7 -33 -3 0 -1 0 -1 -4 -8 -1 0 0 -1 0 0 -1 -1 0 0 -1 -1 0 0 0 0 0 0 -4 0 0 0 0 0
-75 -84 -78 -76 -42 -18 -13 -29 -62 -23 -6 -8 -31 0 -1 0 -1 0 0 0 0 0 0 0 0 0 0 -1 0 0 -1 0 0 0 0 0 0 0 0 0 0 0 0
-73 -49 -89 -81 -46 -33 -57 -43 -65 -4 -6 -18 -41 0 0 0 0 0 0 0 0 0 0 0 -1 0 0 0 0 0 0 0 0 0 0 0 0 0 0 0 0 0 0
-70 -60 -57 -81 -109 -98 -129 -51 -25 -4 -2 -35 -42 0 0 0 0 0 0 0 0 0 0 0 0 0 0 0 0 0 0 0 0 0 0 0 0 0 0 0 0 0 0
-77 -57 -59 -76 -100 -97 -59 -27 -23 -9 -17 -22 -10 -1 0 0 0 0 0 0 0 0 0 0 -1 0 -1 0 0 0 0 0 0 0 0 0 0 0 0 0 0 0 0
-45 -55 -39 -46 -68 -85 -24 -4 -24 -7 -7 -7 -10 -4 -1 0 0 0 0 0 0 -1 -1 -1 0 0 0 0 0 0 0 0 0 0 0 0 0 0 0 0 0 0 0
-48 -44 -43 -38 -40 -24 0 -2 -9 -55 -50 -2 -4 0 0 0 0 0 0 0 0 0 0 0 0 0 -1 0 0 0 0 0 0 0 0 0 0 0 0 0 0 0 0
-66 -51 -45 -31 -17 -9 -1 0 -9 -123 -70 -50 -26 -18 -2 0 0 0 0 0 -1 0 0 -1 0 0 0 -2 0 0 0 0 0 0 0 0 0 0 0 0 0 0 0
-79 -54 -38 -20 -15 -22 -1 0 -8 -27 -37 -29 -6 -5 -20 0 0 0 0 0 -1 -1 -1 -1 -1 0 0 0 -2 0 0 0 0 0 0 0 0 0 0 0 0 0 0
Wind_Speed
15 19 18 16 15 16 16 15 16 14 12 14 15 16 15 15 17 16 16 18 19 21 22 20 22 23 22 23 23 23 23 23 22 22 20 20 21 21 21 18 20 17 21
18 21 19 17 16 14 16 15 16 13 13 14 16 16 15 16 17 16 16 18 19 22 21 21 22 22 22 22 22 22 22 22 20 19 18 19 19 20 21 21 19 17 21
20 21 20 18 17 15 14 14 15 13 14 14 16 16 16 16 17 18 20 20 21 22 21 22 22 21 21 21 19 20 20 18 14 15 12 13 15 19 20 19 18 20 20
20 20 20 18 17 16 13 14 14 14 15 14 16 16 16 17 18 18 19 20 21 22 22 22 21 21 20 20 19 19 18 14 8 8 13 11 13 19 19 19 18 19 19
19 20 19 19 19 18 17 14 15 15 15 15 15 15 15 16 18 18 19 19 19 19 21 21 20 19 19 18 18 17 14 6 8 14 13 9 9 15 17 17 17 18 17
20 19 21 18 18 19 16 15 15 16 16 16 15 14 15 16 18 19 19 17 17 17 19 20 20 20 18 16 17 14 8 3 13 14 10 13 10 17 18 17 16 17 17
21 17 19 19 17 18 18 16 15 16 16 17 16 15 16 17 18 18 18 18 16 16 18 19 18 20 19 17 14 9 5 3 15 14 10 9 10 16 17 15 16 15 14
20 17 19 18 17 16 16 17 15 16 17 15 17 16 17 16 16 17 18 17 16 16 17 17 18 18 18 17 13 7 6 5 14 12 12 10 11 15 15 14 14 15 15
15 17 18 18 17 14 13 14 15 17 18 16 17 17 17 15 15 16 17 17 16 16 16 16 16 16 16 15 11 6 4 6 13 10 10 6 12 14 14 14 14 14 14
14 14 18 19 18 17 14 11 13 16 16 14 17 17 14 13 13 13 12 14 16 16 14 15 16 15 14 13 9 4 2 3 12 12 7 6 13 14 14 13 13 13 12
12 14 15 17 18 17 15 12 11 12 13 14 14 15 14 10 12 13 14 14 15 15 14 15 15 14 12 9 6 3 5 6 8 8 6 9 12 12 12 12 12 12 12
17 16 15 17 17 17 12 15 14 14 13 12 12 13 9 10 8 9 13 13 15 14 14 15 13 13 10 8 5 5 3 7 7 9 6 10 11 11 11 11 10 11 11
19 13 16 16 14 14 11 11 7 7 7 8 14 12 8 9 7 7 7 8 10 10 8 9 9 7 8 7 6 3 5 6 5 6 7 9 9 9 9 9 9 9 9
18 16 14 15 12 13 10 9 10 9 6 6 8 9 8 7 8 6 6 7 8 6 9 9 6 5 5 5 4 5 5 4 5 6 6 7 7 7 7 7 7 6 6
17 15 15 16 13 12 12 10 10 9 8 7 8 10 8 8 8 6 5 7 7 4 7 6 5 6 6 6 4 4 4 4 5 4 5 6 5 5 5 5 5 4 4
20 17 16 16 14 12 12 14 10 9 9 8 8 10 11 8 7 8 6 7 7 3 6 6 6 5 5 5 5 4 4 3 4 4 6 5 2 3 3 3 3 3 2
18 21 19 16 16 14 12 12 9 8 9 8 8 12 12 9 11 4 6 5 6 7 8 6 6 5 4 4 4 3 2 3 2 3 3 5 6 4 1 2 2 3 3
18 19 19 13 17 16 15 9 7 8 9 9 9 9 12 12 13 9 4 6 6 6 6 5 6 5 5 4 5 4 4 4 4 4 3 3 3 3 6 6 3 4 5
18 19 16 15 17 16 13 9 9 12 10 9 10 9 13 12 12 12 9 8 8 6 6 6 6 6 5 4 4 4 3 3 4 3 5 5 4 3 3 10 8 7 9
16 19 15 14 17 15 9 8 7 8 9 8 9 9 13 10 12 9 8 9 9 7 6 6 7 5 5 5 4 4 4 3 3 4 5 5 5 5 5 6 5 6 14
17 17 15 15 15 11 9 9 7 7 6 6 8 12 13 11 12 10 7 9 8 8 8 8 6 7 3 3 3 4 4 5 6 5 5 4 5 5 6 6 5 4 4
17 18 14 16 15 13 9 8 7 7 5 5 4 9 10 11 10 9 9 9 9 7 9 8 6 5 5 5 3 1 2 4 3 5 4 4 5 4 5 6 7 7 6
18 18 15 16 17 14 14 9 8 7 6 6 5 6 8 10 9 9 9 8 9 7 6 7 6 7 4 4 5 2 2 3 1 3 4 3 4 4 5 6 7 8 7
16 16 17 16 16 14 15 12 14 10 10 7 7 7 8 11 11 9 9 8 8 6 7 7 7 6 4 5 3 4 3 3 2 1 3 4 4 4 5 4 5 6 6
17 16 15 16 17 15 14 14 12 11 8 8 8 11 10 10 10 10 10 9 8 6 7 8 7 7 4 4 5 3 4 3 4 2 3 2 3 5 5 5 4 4 5
17 16 15 16 16 15 16 16 16 15 12 11 11 10 9 8 9 11 10 9 8 8 7 6 7 7 6 5 3 3 4 3 5 4 5 5 4 4 3 3 4 4 4
Wind_Direction
147 144 156 166 165 158 157 150 145 139 139 129 125 121 120 118 114 111 112 104 101 96 97 97 91 91 90 88 88 87 86 87 86 81 78 78 81 82 82 80 81 79 79
152 149 154 162 162 155 155 146 145 143 141 136 131 125 121 117 115 113 108 107 102 97 97 94 91 91 91 91 91 91 88 87 84 83 86 75 80 82 81 79 80 83 82
152 150 158 156 155 149 143 141 140 141 139 139 134 128 125 120 115 111 108 106 100 98 96 94 93 93 94 93 93 93 91 92 93 99 92 86 86 84 84 82 84 85 84
149 151 156 154 152 147 146 145 147 145 141 139 135 130 125 121 119 114 111 107 104 101 100 97 98 99 100 96 94 95 95 101 108 134 78 76 85 85 82 84 83 82 79
152 156 145 154 151 149 149 157 148 142 141 137 136 128 128 126 122 116 109 108 107 106 107 108 105 104 101 99 102 103 101 78 69 79 84 79 85 84 88 89 81 81 84
153 163 139 151 154 151 149 152 147 146 144 140 132 130 124 126 121 117 113 111 106 105 111 112 112 111 102 103 105 109 105 94 96 86 82 77 79 89 85 84 86 79 81
156 136 147 149 157 150 149 150 152 149 147 141 135 134 126 120 123 122 118 108 108 110 113 113 115 110 111 107 106 102 58 41 80 84 77 78 75 81 82 81 82 85 85
155 142 151 150 153 152 149 147 153 149 148 145 139 136 126 123 125 124 111 113 115 115 113 115 114 114 113 112 111 96 19 355 107 96 91 88 93 82 85 83 79 83 75
137 157 155 161 153 148 144 148 152 152 148 145 132 129 124 125 125 125 121 126 125 122 116 115 114 116 113 111 108 75 8 346 105 106 99 96 85 91 86 85 82 82 79
142 161 163 160 162 161 159 148 151 146 146 143 130 126 124 126 127 128 127 131 126 120 119 119 119 115 114 110 107 114 94 39 99 98 88 90 91 92 94 90 85 82 80
160 171 166 162 166 165 163 161 151 136 127 122 118 123 138 137 145 150 120 125 117 118 119 119 119 118 105 96 118 175 271 100 93 99 89 103 97 97 95 94 93 89 84
171 171 162 167 168 163 159 159 157 147 150 147 140 153 153 148 143 131 126 121 121 119 122 123 127 137 158 136 161 236 156 108 99 97 96 104 101 103 101 101 97 94 92
169 163 168 166 163 153 158 156 158 158 160 150 155 169 155 111 119 138 136 138 130 143 133 133 147 179 152 143 180 111 103 104 100 110 107 113 109 106 105 103 99 100 99
171 161 170 159 150 159 155 152 157 156 152 156 163 162 159 130 145 151 160 150 154 159 152 155 184 147 152 150 150 136 140 124 116 111 100 97 115 115 109 106 106 104 100
163 154 164 156 148 157 159 156 156 159 153 159 158 166 161 151 134 154 139 148 166 137 179 160 153 147 159 151 145 156 132 122 110 109 116 90 126 139 122 125 123 119 115
163 164 161 163 157 148 153 165 163 154 155 157 160 163 168 154 143 173 162 171 145 155 167 156 149 161 132 153 148 152 143 132 116 122 134 149 76 45 161 148 155 155 169
168 163 165 165 147 148 152 175 156 161 155 157 158 167 165 164 144 145 153 168 151 198 161 155 151 143 143 133 140 142 162 148 163 171 174 144 158 168 126 222 216 229 249
167 161 161 162 152 158 165 160 156 161 160 161 163 168 167 166 161 150 151 176 164 165 169 161 156 160 159 173 157 162 172 178 199 206 179 209 216 178 187 194 222 259 266
166 165 156 163 161 164 157 148 150 176 170 168 164 165 169 169 174 156 178 162 163 175 174 173 168 172 170 180 179 168 178 196 199 209 224 224 235 241 261 177 203 237 256
161 161 155 162 155 155 140 139 150 182 175 164 165 164 169 169 174 173 172 158 173 171 178 175 165 181 184 180 181 197 197 220 237 233 238 224 229 224 236 250 209 221 225
161 156 161 157 149 150 155 152 156 178 174 160 171 167 171 169 176 177 173 163 178 177 177 183 175 173 181 183 189 214 235 225 229 228 235 243 245 238 241 248 245 248 229
155 159 163 160 155 157 161 159 166 165 162 164 163 164 170 169 174 179 174 169 186 179 183 188 186 179 169 185 209 269 240 178 219 236 241 240 247 250 244 247 251 252 248
162 163 164 164 163 161 165 166 151 153 155 165 153 158 173 174 173 182 174 172 181 186 182 186 178 194 167 187 229 282 182 234 127 142 208 214 221 230 242 239 240 247 250
167 164 169 167 166 173 167 163 162 167 166 165 163 166 177 179 176 184 175 178 176 185 183 186 186 202 202 179 178 237 264 337 310 207 185 194 217 254 254 238 233 244 241
165 171 168 171 169 176 171 173 165 166 174 167 174 179 180 180 174 187 183 189 184 182 197 187 191 202 192 216 180 151 219 213 243 249 285 218 180 215 228 247 243 241 230
166 169 172 175 171 177 183 178 175 175 181 172 179 180 180 178 176 189 189 192 199 194 196 196 186 198 191 218 197 199 194 184 203 206 236 260 250 260 254 253 238 230 233